Location: Holtensen
(51.8118°N, 9.7997°E)
Time: 11:21:15
(UTC+00:00)

Daily predictions for brighter satellites

Satellite Brightness Start Highest point End
(mag) Time Altitude Azimuth Time Altitude Azimuth Time Altitude Azimuth
Cosmos 2369 Rocket 3.0 18:52:33 10° SW 18:58:09 60° NW 19:03:46 10° NNE
Meteor 1-11 4.3 18:53:48 10° NNW 18:59:30 86° ENE 19:05:14 10° SSE
BlueWalker 3 3.5 18:59:07 10° S 19:01:40 17° SE 19:04:14 10° E
Terra 3.4 19:02:09 10° ESE 19:05:33 20° ENE 19:08:58 10° NNE
ATLAS 5 CENTAUR R/B 1.0 19:02:47 10° SSW 19:06:04 57° SE 19:09:48 10° NE
PSLV R/B 3.7 19:04:56 10° SSE 19:08:40 90° W 19:12:29 10° NNW
Cosmos 2098 Rocket 2.9 19:04:18 10° S 19:08:57 76° E 19:12:43 10° NNE
CARTOSAT-1 3.5 19:05:07 10° SSE 19:09:23 81° ENE 19:13:41 10° NNW
Cosmos 1455 3.6 19:07:52 10° SW 19:11:15 40° WNW 19:14:39 10° N
Sich 1 Rocket 4.3 19:07:25 10° SSE 19:11:22 33° E 19:15:23 10° NNE
Okean 1 Rocket 4.4 19:08:02 10° SE 19:11:29 22° E 19:14:57 10° NE
Cosmos 1975 Rocket 3.9 19:10:43 10° NNW 19:14:55 51° W 19:19:06 10° S
Okean-O 2.8 19:12:06 10° SSE 19:16:25 57° ENE 19:20:45 10° N
CZ-4B R/B 3.9 19:13:06 10° S 19:18:39 60° WSW 19:24:09 10° NNW
Cosmos 2263 Rocket 4.0 19:15:01 10° NNW 19:19:02 19° NNE 19:23:00 10° ENE
Ariane Rocket 4.2 19:16:22 10° ESE 19:20:30 26° ENE 19:24:39 10° N
CZ-4C R/B 3.7 19:17:33 10° NNE 19:20:39 31° E 19:23:42 10° SSE
Cosmos 1821 Rocket 4.2 19:16:14 10° NNW 19:22:25 74° W 19:28:29 10° S
Nadezhda 3 Rocket 4.0 19:17:15 10° S 19:23:18 66° E 19:29:27 10° NNE
SL-27 R/B 3.9 19:20:53 10° NW 19:23:25 27° WSW 19:25:56 10° SSW
Genesis I 3.0 19:20:05 10° NW 19:23:44 84° NE 19:26:55 13° SE
USA 186 3.3 19:22:21 10° SSW 19:25:09 34° W 19:27:56 10° NNW
BREEZE-M R/B 2.3 19:23:27 10° W 19:25:58 42° SSW 19:27:40 16° SE
USA 267 3.3 19:19:27 10° ENE 19:26:03 84° SSE 19:32:38 10° WSW
Okean O Rocket 2.2 19:26:58 10° S 19:31:15 59° WSW 19:35:37 10° NNW
Aureole 1 Rocket 4.2 19:30:52 10° N 19:32:53 16° NE 19:34:29 12° E
CZ-4 R/B 3.7 19:33:27 10° SSW 19:36:33 22° W 19:39:39 10° NW
Cosmos 1536 Rocket 3.5 19:36:38 10° N 19:41:05 86° E 19:45:31 10° S
SJ 16-02 4.2 19:40:05 10° WNW 19:42:01 13° W 19:43:57 10° WSW
Resurs 01 Rocket 2.8 19:41:55 10° S 19:46:06 42° W 19:50:21 10° NNW
IRS-1C Rocket 4.1 19:42:38 12° SSE 19:47:33 72° ENE 19:52:51 10° NNW
CENTAUR R/B 3.7 19:42:10 10° NW 19:49:37 51° NNE 19:57:39 12° ESE
MOS 1 4.3 19:43:59 10° SSE 19:49:42 88° WSW 19:55:27 10° NNW
NOSS 3-1 (A) 3.1 19:47:37 10° SW 19:52:39 76° SE 19:58:49 10° NE
ERS-1 Rocket 3.2 19:51:26 17° SE 19:55:09 56° ENE 20:00:04 10° N
Cosmos 546 4.5 19:53:39 10° W 19:57:25 76° S 19:59:52 20° E
SPOT 3 Rocket 4.1 19:55:09 19° SE 19:58:35 45° ENE 20:03:31 10° N
Cosmos 1934 Rocket 4.0 19:53:43 10° N 19:59:54 85° W 20:06:09 10° S
USA 229 DEB 3.9 19:56:02 10° S 20:01:43 41° ESE 20:07:57 10° NE
USA 229 3.9 19:56:08 10° S 20:01:49 41° ESE 20:08:03 10° NE
Cosmos 2151 Rocket 3.7 19:59:07 10° SSW 20:03:31 77° WNW 20:07:59 10° N
Cosmos 1339 Rocket 4.4 19:57:29 10° S 20:03:37 80° E 20:09:42 10° NNE
USA 234 4.3 19:58:35 11° SSE 20:04:16 35° SW 20:10:12 10° WNW
USA 281 3.7 19:59:27 10° S 20:05:54 56° WSW 20:12:23 10° NNW
ATLAS CENTAUR R/B 1.9 20:04:27 10° NNW 20:08:01 41° NE 20:09:58 23° E
Cosmos 2227 Rocket 2.4 20:03:10 10° NNW 20:08:49 62° NE 20:12:21 23° SE
Iridium 2 3.8 20:09:24 10° NNW 20:12:17 50° W 20:14:16 17° SSW
Cosmos 1980 Rocket 3.8 20:13:32 15° E 20:13:32 15° E 20:16:27 10° ENE
NOSS 3-1 (C) 4.0 20:08:14 10° WSW 20:13:21 54° NNW 20:19:39 10° NE
Cosmos 1892 Rocket 3.6 20:11:46 10° N 20:16:04 60° ENE 20:18:09 28° SSE
SL-4 R/B 1.6 20:13:17 10° W 20:16:51 61° SSW 20:17:57 38° SE
Cosmos 371 Rocket 4.5 20:12:27 10° NW 20:16:53 38° WSW 20:21:07 11° S
Landsat 4 3.7 20:17:01 24° S 20:18:58 69° WSW 20:22:30 10° NNW
MetOp-B 4.5 20:15:37 13° S 20:20:21 65° WSW 20:25:42 10° NNW
Cosmos 1937 Rocket 4.4 20:16:03 10° NNW 20:20:59 37° NE 20:23:39 23° ESE
Cosmos 1697 Rocket 3.3 20:18:57 23° SSE 20:21:33 35° ESE 20:26:38 10° NE
Cosmos 2360 4.5 20:17:18 10° S 20:22:38 46° ESE 20:28:03 10° NE
COSMOS 2455 2.9 20:18:16 10° NW 20:24:20 78° SW 20:27:59 25° SSE
Okean 2 Rocket 3.9 20:21:15 10° SSW 20:25:39 52° WNW 20:30:04 10° N
ATLAS 3B R/B 3.1 20:19:33 10° SW 20:26:47 75° NW 20:34:31 10° NE
NOSS 8 (H) 4.4 20:27:29 10° NW 20:30:32 68° SW 20:31:30 43° SSE
SPOT 5 3.6 20:26:03 14° S 20:30:35 56° W 20:35:45 10° NNW
MetOp-A 3.8 20:30:40 35° ESE 20:31:38 43° ENE 20:35:17 10° N
Cosmos 1898 Rocket 3.8 20:28:34 10° NNW 20:33:46 56° ENE 20:36:04 31° ESE
Cosmos 405 Rocket 2.6 20:33:26 42° SSE 20:34:25 59° E 20:38:05 10° NNE
Cosmos 2297 Rocket 2.7 20:31:37 10° NW 20:37:07 54° WSW 20:40:35 22° S
CZ-4C R/B 2.9 20:30:41 10° NW 20:37:36 88° SW 20:42:37 27° SE
Spot 2 Rocket 3.5 20:36:25 27° SSE 20:39:14 83° WSW 20:44:19 10° NNW
BlueWalker 3 1.8 20:35:35 10° SW 20:39:22 62° SSE 20:40:37 38° E
USA 81 4.3 20:38:46 33° SE 20:40:48 50° E 20:45:54 10° NNE
ARIANE 5 R/B 4.1 20:39:49 21° E 20:41:04 24° ENE 20:44:38 10° N
Terra 1.9 20:40:08 27° S 20:42:41 71° WSW 20:47:26 10° NNW
Cosmos 1656 3.7 20:39:06 10° SSW 20:44:41 79° WNW 20:50:12 10° NNE
Spot 1 4.2 20:43:00 10° NNE 20:47:39 60° ESE 20:49:02 40° SSE
Cosmos 1455 Rocket 2.9 20:46:45 34° S 20:48:38 80° E 20:53:02 10° NNE
Okean 1 Rocket 4.0 20:44:42 10° SSW 20:49:01 48° WNW 20:53:22 10° N
Cosmos 332 Rocket 4.4 20:44:48 10° NNW 20:49:30 49° WSW 20:51:53 26° SSW
Cosmos 1459 Rocket 4.2 20:43:40 10° N 20:49:36 53° ENE 20:52:04 33° SE
Iridium 4 Rocket 4.4 20:44:26 10° SSW 20:49:54 55° W 20:55:40 10° N
USA 245 4.4 20:46:54 21° S 20:50:06 51° WSW 20:54:18 10° NNW
ATLAS 5 CENTAUR R/B 3.4 20:47:09 10° W 20:50:16 27° NNW 20:53:50 10° NE
Cosmos 2219 3.2 20:46:33 10° NNW 20:52:15 73° ENE 20:54:33 37° SE
Ariane Rocket 3.4 20:56:31 27° S 20:59:07 57° WSW 21:04:07 10° NNW
Cosmos 1437 Rocket 3.3 20:55:21 10° NNW 20:59:11 54° W 21:00:22 38° SSW
Cosmos 1763 Rocket 3.3 20:57:45 18° SSW 21:01:33 89° ESE 21:06:45 10° NNE
Cosmos 2263 Rocket 2.3 20:58:31 10° NNW 21:04:07 63° NE 21:06:06 39° ESE
Cosmos 1544 4.3 21:03:57 10° N 21:05:38 24° NE 21:05:38 24° NE
Cosmos 44 3.5 21:01:12 10° SW 21:06:38 83° NW 21:11:57 10° NE
USA 267 3.8 21:02:30 10° ENE 21:08:57 61° N 21:15:23 10° W
Cosmos 2082 3.8 21:04:57 10° NNW 21:10:37 69° ENE 21:12:29 42° SE
ARGOS Delta rocket 4.3 21:08:36 33° S 21:11:00 68° W 21:16:29 10° NNW
Cosmos 2173 Rocket 4.0 21:08:04 10° N 21:14:30 81° E 21:17:01 40° SSE
NOSS 3-2 (A) 4.0 21:08:32 10° NW 21:15:38 76° NE 21:19:58 32° ESE
Aureole 1 Rocket 3.5 21:13:28 10° NW 21:15:56 32° W 21:15:56 32° W
Meteor 2-3 Rocket 3.8 21:12:20 10° N 21:18:01 69° ENE 21:19:41 46° SE
Cosmos 540 Rocket 3.4 21:18:45 30° SSW 21:21:18 86° WNW 21:26:27 10° NNE
Cosmos 1606 3.5 21:23:39 38° NE 21:23:39 38° NE 21:26:15 10° NNE
Cosmos 2058 3.4 21:21:55 10° NNW 21:25:48 49° W 21:26:27 44° SW
MOS 1 Rocket 3.6 21:25:21 42° SW 21:26:18 51° W 21:30:38 10° NNW
Meteor 2-15 4.4 21:21:52 10° N 21:28:02 82° ENE 21:29:58 46° SSE
Cosmos 1626 Rocket 3.5 21:24:05 10° NNW 21:28:31 76° W 21:29:06 64° SSW
Cosmos 372 Rocket 4.1 21:25:44 10° NNW 21:30:58 69° WSW 21:32:09 51° S
Meteor 2-15 Rocket 4.5 21:25:10 10° N 21:31:19 68° ENE 21:33:03 47° SE
Cosmos 1864 Rocket 4.4 21:27:43 10° N 21:33:56 76° ENE 21:35:41 49° SSE
Cosmos 468 Rocket 4.1 21:31:31 29° SW 21:34:11 74° WNW 21:39:27 10° NNE
Cosmos 1802 Rocket 3.9 21:30:41 10° N 21:37:00 87° E 21:38:59 47° SSE
TIMED 4.5 21:33:35 10° NNW 21:37:55 70° WSW 21:38:04 70° SW
SL-16 R/B 3.9 21:41:08 17° E 21:41:08 17° E 21:43:41 10° ENE
CENTAUR R/B 3.3 21:32:53 10° NW 21:40:59 74° SW 21:44:48 39° SSE
Landsat 5 4.2 21:37:53 10° N 21:42:00 49° WNW 21:43:12 36° WSW
Cosmos 1869 3.4 21:43:56 67° N 21:43:56 67° N 21:47:20 10° N
Cosmos 841 Rocket 3.3 21:43:35 66° SSE 21:44:05 72° ESE 21:49:13 10° NNE
Cosmos 2016 Rocket 3.9 21:38:08 10° N 21:44:17 84° E 21:45:55 52° SSE
ATLAS CENTAUR R/B 2.6 21:42:21 10° WNW 21:45:04 29° WSW 21:45:04 29° WSW
Intercosmos 25 4.1 21:43:14 10° NNW 21:47:52 44° W 21:48:13 43° WSW
Cosmos 1844 Rocket 3.7 21:43:18 10° NNW 21:48:31 37° NE 21:50:30 28° E
Cosmos 1544 Rocket 3.7 21:49:27 60° WSW 21:49:52 65° WNW 21:54:12 10° N
Uosat 12 SS-18 rocket 4.3 21:46:06 10° NW 21:50:45 61° NE 21:51:05 59° ENE
Cosmos 2100 Rocket 4.4 21:45:41 10° NNW 21:51:54 57° W 21:54:16 36° SSW
USA 229 DEB 4.0 21:46:09 10° WSW 21:52:24 62° NW 21:59:23 10° NE
Cosmos 2227 Rocket 3.5 21:47:44 10° NW 21:52:30 28° WSW 21:54:10 24° SW
USA 229 4.0 21:46:14 10° WSW 21:52:30 62° NW 21:59:28 10° NE
H-2A R/B 2.7 21:54:16 58° N 21:54:16 58° N 21:57:27 10° NNW
SL-4 R/B 4.4 21:52:38 10° W 21:52:47 11° W 21:52:47 11° W
Cosmos 1980 Rocket 2.0 21:55:14 58° SSW 21:56:21 81° ESE 22:02:02 10° NNE
Cosmos 967 Rocket 4.4 21:52:46 10° NW 21:59:17 79° SW 22:00:44 56° SSE
Cosmos 1937 Rocket 4.1 21:57:59 10° NW 22:03:01 44° WSW 22:03:46 41° SW
Okean 1-7 Rocket 4.0 21:59:30 10° NNW 22:03:56 54° W 22:04:09 53° WSW
Cosmos 1697 Rocket 3.4 22:00:32 14° SW 22:05:20 52° NW 22:10:54 10° NNE
Cosmos 2151 3.8 22:03:00 10° N 22:06:35 42° NE 22:06:35 42° NE
Cosmos 2123 Rocket 4.0 22:05:45 49° SSW 22:07:39 82° W 22:14:01 10° N
CZ-2C R/B 3.7 22:05:50 10° NNE 22:10:37 85° WNW 22:10:47 82° SW
Meteor 1-27 4.0 22:10:41 69° SSE 22:11:15 77° E 22:16:49 10° NNE
Cosmos 1602 Rocket 4.1 22:07:07 10° NNW 22:11:18 48° W 22:11:18 48° W
Cosmos 1758 Rocket 4.3 22:07:44 10° NNW 22:11:58 43° W 22:12:06 43° W
Cosmos 2228 3.5 22:14:51 52° WNW 22:14:51 52° WNW 22:18:58 10° N
ARIANE 5 R/B 3.1 22:17:17 53° W 22:17:17 53° W 22:21:36 10° NNW
BlueWalker 3 4.0 22:13:49 10° W 22:15:07 20° W 22:15:07 20° W
ATLAS 3B R/B 4.3 22:11:52 10° W 22:18:43 38° NNW 22:25:54 10° NE
Terra 4.4 22:20:07 10° W 22:21:09 11° W 22:22:12 10° WNW
CZ-4C R/B 4.1 22:19:35 10° WNW 22:25:45 29° WSW 22:27:43 27° SW
Cosmos 1076 Rocket 4.2 22:22:33 10° N 22:26:09 46° NE 22:26:09 46° NE
Cosmos 2227 4.0 22:21:27 10° NNW 22:27:12 85° WSW 22:27:45 74° S
Cosmos 2369 3.7 22:27:50 56° SW 22:29:01 78° WNW 22:34:43 10° NNE
Cosmos 1606 Rocket 3.8 22:30:33 63° N 22:30:33 63° N 22:34:14 10° N
Cosmos 1825 Rocket 3.9 22:26:09 10° NNW 22:30:02 59° WNW 22:30:02 59° WNW
Cosmos 1666 4.0 22:27:11 10° NNW 22:29:23 36° NNW 22:29:23 36° NNW
Lacrosse 4 Rocket 2.9 22:33:41 28° NE 22:33:41 28° NE 22:35:43 10° NE
NOSS 3-2 (C) 3.9 22:24:34 10° NW 22:31:49 85° SW 22:34:32 48° SE
H-2A R/B 3.7 22:28:26 10° NE 22:30:48 24° ENE 22:30:48 24° ENE
Cosmos 2233 Rocket 4.1 22:28:06 10° NNW 22:34:13 66° W 22:35:19 56° SW
ALOS 2 2.8 22:35:59 68° N 22:35:59 68° N 22:39:53 10° NNW
ATLAS 5 CENTAUR R/B 4.3 22:32:43 10° NW 22:35:30 18° N 22:38:36 10° NE
Cosmos 2061 Rocket 4.4 22:34:21 10° NNW 22:40:38 55° W 22:42:00 47° SW
Cosmos 1447 Rocket 4.3 22:42:34 68° SSE 22:43:24 82° E 22:49:35 10° NNE
Cosmos 1464 Rocket 4.3 22:37:28 10° N 22:43:46 57° ENE 22:44:59 49° ESE
Cosmos 1814 Rocket 3.9 22:45:04 83° ENE 22:45:04 83° ENE 22:50:06 10° NNE
Cosmos 2058 Rocket 3.8 22:47:28 45° NE 22:47:28 45° NE 22:50:46 10° NNE
Cosmos 2263 Rocket 3.5 22:43:01 10° NW 22:47:37 27° WSW 22:47:47 27° WSW
Cosmos 2360 Rocket 3.3 22:51:06 29° E 22:51:06 29° E 22:55:12 10° NE
Cosmos 1271 Rocket 4.1 22:46:42 10° NNW 22:49:07 35° NW 22:49:07 35° NW
SL-19 R/B 4.2 22:45:26 10° NNE 22:51:07 88° ESE 22:51:47 72° SSW
USA 267 3.7 22:45:08 10° E 22:51:35 62° N 22:58:02 10° WNW
Cosmos 2084 Rocket 4.4 22:50:30 10° NW 22:53:29 42° N 22:53:29 42° N
Cosmos 1891 Rocket 4.3 22:52:14 10° N 22:58:27 89° W 22:59:17 69° S
Meteor 1-20 Rocket 4.3 22:52:59 10° N 22:58:36 65° ENE 22:59:08 62° ESE
Cosmos 1513 Rocket 4.3 22:52:44 10° N 22:58:53 86° E 22:59:38 70° SSE
Cosmos 1570 Rocket 4.3 23:02:43 53° E 23:02:43 53° E 23:07:16 10° NNE
Cosmos 2278 Rocket 4.4 22:58:15 10° NNW 23:02:34 21° NE 23:06:53 10° E
Cosmos 2333 Rocket 3.3 23:03:47 32° E 23:03:47 32° E 23:08:07 10° NE
Cosmos 2322 Rocket 2.7 23:03:59 46° E 23:03:59 46° E 23:08:51 10° NE
Lacrosse 5 3.4 23:05:57 24° E 23:05:57 24° E 23:08:14 10° ENE
Cosmos 2219 Rocket 3.8 23:05:42 21° E 23:05:42 21° E 23:09:13 10° NE
Cosmos 2034 Rocket 4.3 22:59:48 10° N 23:05:54 56° ENE 23:07:00 49° ESE
Cosmos 1726 Rocket 4.3 23:10:52 45° NW 23:10:52 45° NW 23:14:34 10° N
Meteor 1-25 Rocket 4.2 23:04:59 10° N 23:10:37 67° ENE 23:11:03 64° ESE
Cosmos 1238 Rocket 4.3 23:19:41 31° NNW 23:19:41 31° NNW 23:21:55 10° N
Geosat 4.4 23:20:32 53° E 23:21:13 58° NE 23:26:10 10° NNW
Cosmos 1809 Rocket 4.3 23:21:05 71° SSW 23:21:51 87° W 23:28:06 10° N
Cosmos 1782 4.4 23:24:05 30° NE 23:24:05 30° NE 23:26:23 10° NNE
SL-16 R/B 2.0 23:22:57 81° SW 23:23:15 89° WNW 23:28:59 10° NNE
Cosmos 1844 3.7 23:17:47 10° NW 23:23:28 66° WSW 23:23:28 66° WSW
CENTAUR R/B 4.4 23:24:27 10° WNW 23:30:55 25° WSW 23:31:56 24° WSW
USA 238 DEB 3.8 23:24:18 10° NW 23:31:33 68° SW 23:32:58 57° S
USA 238 3.8 23:24:24 10° NW 23:31:39 69° SW 23:33:05 57° S
Cosmos 1125 Rocket 4.0 23:27:21 10° NNW 23:31:49 47° W 23:31:49 47° W
Cosmos 1844 Rocket 3.1 23:27:10 10° NW 23:32:08 49° W 23:32:08 49° W
Cosmos 1812 4.3 23:37:39 31° NNW 23:37:39 31° NNW 23:39:50 10° N
Meteor 2-9 4.5 23:30:55 10° NNW 23:36:24 88° W 23:36:35 84° S
PSLV R/B 3.9 23:34:45 10° N 23:39:04 67° NW 23:39:04 67° NW
Cosmos 1943 Rocket 4.4 23:35:41 10° NNW 23:40:08 23° NE 23:44:36 10° E
Cosmos 158 Rocket 4.0 23:41:25 64° ENE 23:41:25 64° ENE 23:45:56 10° NNE
Cosmos 1980 Rocket 4.0 23:36:55 13° W 23:41:00 27° NW 23:45:47 10° NNE
Meteor 2-14 Rocket 4.4 23:41:04 62° SW 23:41:56 71° WNW 23:48:06 10° N
Cosmos 2278 4.3 23:44:40 42° W 23:46:00 51° NW 23:51:33 10° NNE
Cosmos 1933 4.4 23:47:58 41° NE 23:47:58 41° NE 23:50:46 10° NNE
Timation 2 Rocket 4.0 23:41:27 10° NW 23:47:58 60° WSW 23:48:19 59° SW
Meteor 2-2 Rocket 4.2 23:48:58 68° SE 23:49:32 74° E 23:55:29 10° NNE
Cosmos 1816 Rocket 4.3 23:51:35 70° SSW 23:52:23 88° W 23:58:34 10° N
Cosmos 1743 4.4 23:50:43 10° N 23:53:29 28° NE 23:53:29 28° NE
